Hourly Data Report for October 10, 2014

All times are specified in Local Standard Time (LST). Add 1 hour to adjust for Daylight Saving Time where and when it is observed.

PANGNIRTUNG
NUNAVUT

66°08'36.300" N
65°42'40.500" W
22.60 m
2403049
71826
WXP

Download Data

Hourly Data (October 2014)
Hourly Data Report for October 10, 2014
Temp Definition
°C
Dew Point Temp Definition
°C
Rel Hum Definition
%
Wind Dir Definition
10's deg

Wind Spd Definition
km/h
Visibility Definition
km
Stn Press Definition
kPa
Hmdx Definition


Wind Chill Definition


Weather Definition


TIME
00:00 -0.7 -2.8 86 25 6   99.74   -3 LegendNANA
01:00 1.2 -2.7 75 8 29   99.59     LegendNANA
02:00 1.8 -3.0 70 7 29   99.44     LegendNANA
03:00 2.6 -3.3 65 6 24   99.34     LegendNANA
04:00 2.5 -3.1 66 7 31   99.12     LegendNANA
05:00 4.7 -3.3 56 8 30   99.00     LegendNANA
06:00 6.2 -2.0 56 6 25   98.94     LegendNANA
07:00 6.1 -2.6 54 6 32   98.86     LegendNANA
08:00 6.1 -2.9 53 6 28   98.85     LegendNANA
09:00 6.3 -2.8 52 6 28   98.82     LegendNANA
10:00 7.2 -1.1 55 8 30   98.83     LegendNANA
11:00 8.6 -0.7 52 6 37   98.82     LegendNANA
12:00 8.6 -0.6 52 5 40   98.84     LegendNANA
13:00 8.3 -0.7 53 6 33   98.89     LegendNANA
14:00 8.0 -0.8 54 7 41   98.82     LegendNANA
15:00 8.3 -0.9 52 7 40   98.81     LegendNANA
16:00 8.0 -1.2 52 7 26   98.85     LegendNANA
17:00 7.2 -0.1 60 8 35   98.90     LegendNANA
18:00 7.6 -0.4 57 8 28   98.96     LegendNANA
19:00 7.5 -0.2 58 8 22   98.96     LegendNANA
20:00 5.4 0.4 70 8 23   98.99     LegendNANA
21:00 5.1 -0.5 67 8 30   98.95     LegendNANA
22:00 5.4 -0.5 66 7 18   98.93     LegendNANA
23:00 6.2 -0.6 61 8 16   98.88     LegendNANA

Notes on Data Quality.

Legend

  • E = Estimated
  • M = Missing
  • NA = Not Available
  • ‡ = Partner data that is not subject to review by the National Climate Archives
Date modified: